This is the latest recevied weather packets stored in our database for station/object N4DBJ. If no packets are shown the sender has not sent any weather packets the latest 10 day(s).
| Time | Temp. | Humidity | Pressure | Rain* | Wind** | Luminosity | Snow |
|---|---|---|---|---|---|---|---|
| 1777315369 | 26.67° C | 65% | 1010.7 hPa | 0 mm | - | 441 W/m² | - |
| 1777315066 | 27.22° C | 63% | 1010.9 hPa | 0 mm | - | 497 W/m² | - |
| 1777314766 | 27.22° C | 63% | 1010.7 hPa | 0 mm | - | 721 W/m² | - |
| 1777314463 | 27.22° C | 65% | 1010.9 hPa | 0 mm | - | 718 W/m² | - |
| 1777314159 | 27.22° C | 65% | 1011 hPa | 0 mm | - | 273 W/m² | - |
| 1777313858 | 27.22° C | 64% | 1010.8 hPa | 0 mm | - | 719 W/m² | - |
| 1777313554 | 27.22° C | 65% | 1011 hPa | 0 mm | - | 739 W/m² | - |
| 1777313252 | 27.78° C | 63% | 1011.2 hPa | 0 mm | - | 443 W/m² | - |
| 1777312948 | 27.22° C | 64% | 1011.2 hPa | 0 mm | - | 770 W/m² | - |
| 1777312645 | 26.67° C | 64% | 1011.2 hPa | 0 mm | - | 468 W/m² | - |
| 1777312342 | 26.67° C | 64% | 1011.1 hPa | 0 mm | - | 733 W/m² | - |
| 1777312040 | 26.67° C | 63% | 1011.4 hPa | 0 mm | - | 464 W/m² | - |
| 1777311736 | 27.22° C | 64% | 1011.4 hPa | 0 mm | - | 699 W/m² | - |
| 1777311434 | 26.67° C | 66% | 1011.1 hPa | 0 mm | - | 761 W/m² | - |
| 1777311131 | 26.67° C | 66% | 1011.3 hPa | 0 mm | - | 777 W/m² | - |
| 1777310829 | 26.11° C | 68% | 1011.6 hPa | 0 mm | - | 757 W/m² | - |
| 1777310526 | 26.11° C | 67% | 1011.4 hPa | 0 mm | - | 761 W/m² | - |
| 1777310223 | 26.11° C | 67% | 1011.3 hPa | 0 mm | - | 729 W/m² | - |
| 1777309920 | 25.56° C | 69% | 1011.5 hPa | 0 mm | - | 724 W/m² | - |
| 1777309618 | 25° C | 69% | 1011.3 hPa | 0 mm | - | 716 W/m² | - |
| 1777309315 | 25.56° C | 68% | 1011.3 hPa | 0 mm | - | 691 W/m² | - |
| 1777309014 | 25° C | 70% | 1011.8 hPa | 0 mm | - | 632 W/m² | - |
| 1777308710 | 25° C | 70% | 1011.7 hPa | 0 mm | - | 560 W/m² | - |
| 1777308404 | 25° C | 71% | 1011.8 hPa | 0 mm | - | 527 W/m² | - |
| 1777308100 | 25° C | 70% | 1011.8 hPa | 0 mm | - | 553 W/m² | - |
* Rain latest hour (hover to see other rain measurements)
** Current wind speed in m/s (hover to see current wind gust speed)